Location: Marshall
(39.8477°N, 87.1868°W)
Time: 05:23:17
(UTC+00:00)

HTV-X1 - Pass Details

Date: 27 May 2026
Orbit: 368 x 378 km, 51.6° (Epoch: 26 May)

Event Time Altitude Azimuth Distance (km) Brightness Sun altitude
Rises 02:01:23 0° 305° (NW) 2,216 ? -9.6°
Reaches altitude 10° 02:03:26 10° 302° (WNW) 1,365 ? -9.9°
Maximum altitude 02:06:28 66° 221° (SW) 406 ? -10.3°
Enters shadow 02:08:38 17° 140° (SE) 1,022 ? -10.6°
